EHI
0 0 0 0 0 0 0 0 0 0 0 0 0 0 0 0 0 0 0 0 1 4 7 9 10 11 10 8 6 3 1 2 3 2 1 0 0 0 0 0 0 0 0 1 2 2 2 3 3
0 0 0 0 0 0 0 0 0 0 0 0 0 0 0 0 0 0 0 0 1 3 6 8 9 10 10 9 6 2 1 1 2 1 0 0 0 0 0 0 0 1 1 2 3 3 3 3 3
0 0 0 0 0 0 0 0 0 0 0 0 0 0 0 0 0 0 0 0 0 1 4 7 9 10 11 11 7 2 0 1 1 0 0 0 0 0 0 0 1 2 3 3 3 3 4 3 3
0 0 0 0 0 0 0 0 0 0 0 0 0 0 0 0 0 0 1 1 1 1 3 6 8 10 11 12 8 2 0 1 0 0 0 0 0 0 0 0 1 2 3 3 3 4 5 4 4
0 0 0 0 0 0 0 0 0 0 0 0 0 0 0 0 0 1 2 2 2 1 3 5 7 9 10 9 7 3 1 1 0 0 0 0 0 0 0 0 0 1 2 3 3 4 5 5 4
0 0 0 0 0 0 0 0 0 0 0 0 0 0 0 0 0 1 2 3 3 2 3 4 5 6 6 6 4 3 2 1 0 0 0 0 1 1 1 1 0 0 1 3 3 4 5 5 4
0 0 0 0 0 0 0 0 0 0 0 0 0 0 0 0 0 1 2 3 3 3 3 4 4 4 4 3 2 2 2 2 1 0 0 0 1 2 2 1 0 0 1 2 3 3 3 4 4
0 0 0 0 0 0 0 0 0 0 0 0 0 0 0 0 0 0 1 2 3 3 4 4 3 2 2 1 1 0 1 1 1 0 0 0 1 2 2 1 0 0 0 1 1 1 1 2 3
0 0 0 0 0 0 0 0 0 0 0 0 0 0 0 0 0 0 0 1 2 3 4 3 2 1 1 0 0 0 0 0 0 0 0 0 0 1 1 0 0 0 0 0 0 0 0 1 2
0 0 0 0 0 0 0 0 0 0 0 0 0 0 0 0 0 0 0 0 1 2 3 3 2 1 1 1 1 1 1 0 0 0 0 0 1 1 1 0 0 0 0 0 0 0 0 0 1
0 0 0 0 0 0 0 0 0 0 0 0 0 0 0 0 0 0 0 0 0 1 1 2 2 2 2 2 3 4 3 1 1 1 0 1 2 2 2 1 0 0 0 0 0 0 0 0 1
0 0 0 0 0 0 0 0 0 0 0 0 0 0 0 0 0 0 0 0 0 0 0 1 1 2 1 2 4 5 3 2 2 2 2 2 3 3 3 2 1 0 1 0 0 0 0 0 1
0 0 0 0 0 0 0 0 0 0 0 0 0 0 0 0 0 0 0 0 0 0 0 0 0 1 1 2 3 3 3 2 2 3 3 3 3 3 3 2 1 0 0 0 0 0 0 0 0
0 0 0 0 0 0 0 0 0 0 0 0 0 0 0 0 0 0 0 0 0 0 0 0 0 0 0 1 2 2 2 2 2 3 3 3 3 3 2 1 0 0 0 0 0 0 0 0 0
0 0 0 0 0 0 0 0 0 0 0 0 0 0 0 0 0 0 0 0 0 0 0 0 0 0 0 0 1 2 2 2 3 3 3 3 3 2 1 0 0 0 0 0 0 0 0 0 0
0 0 0 0 0 0 0 0 0 0 0 0 0 0 0 0 0 0 0 0 0 0 0 0 0 0 0 0 1 1 1 1 3 3 3 3 3 1 0 0 0 0 0 0 0 0 0 0 0
0 0 0 0 0 0 0 0 0 0 0 0 0 0 0 0 0 0 0 0 0 0 0 0 0 0 0 0 0 1 1 1 2 3 3 3 2 1 0 0 0 0 0 0 0 0 0 0 0
0 0 0 0 0 0 0 0 0 0 0 0 0 0 0 0 0 0 0 0 0 0 0 0 0 0 0 0 0 0 1 1 1 2 3 3 1 0 0 0 0 0 0 0 0 0 0 0 0
0 0 0 0 0 0 0 0 0 0 0 0 0 0 0 0 0 0 0 0 0 0 0 0 0 0 0 0 0 0 0 0 0 1 3 2 1 0 0 0 0 0 0 0 0 0 0 0 0
0 0 0 0 0 0 0 0 0 0 0 0 0 0 0 0 0 0 0 0 0 0 0 0 0 0 0 0 0 0 0 0 0 1 2 2 1 0 0 0 0 0 0 0 0 0 0 0 0
0 0 0 0 0 0 0 0 0 0 0 0 0 0 0 0 0 0 0 0 0 0 0 0 0 0 0 0 0 0 0 0 0 0 1 1 1 0 0 0 0 0 0 0 0 0 0 0 0
0 0 0 0 0 0 0 0 0 0 0 0 0 0 0 0 0 0 0 0 0 0 0 0 0 0 0 0 0 0 0 0 0 0 0 0 0 0 0 0 0 0 0 0 1 0 0 0 0
0 0 0 0 0 0 0 0 0 0 0 0 0 0 0 0 0 0 0 0 0 0 0 0 0 0 0 0 0 0 0 0 0 0 0 0 0 0 0 0 0 0 0 0 0 0 0 0 0
0 0 0 0 0 0 0 0 0 0 0 0 0 0 0 0 0 0 0 0 0 0 0 0 0 0 0 0 0 0 0 0 0 0 0 0 0 0 0 0 0 0 0 0 0 0 0 0 0
0 0 0 0 0 0 0 0 0 0 0 0 0 0 0 0 0 0 0 0 0 0 0 0 0 0 0 0 0 0 0 0 0 0 0 0 0 0 0 0 0 0 0 0 0 0 0 0 0
0 0 0 0 0 0 0 0 0 0 0 0 0 0 0 0 0 0 0 0 0 0 0 0 0 0 0 0 0 0 0 0 0 0 0 0 0 0 0 0 0 0 0 0 0 0 0 0 0
0 0 0 0 0 0 0 0 0 0 0 0 0 0 0 0 0 0 0 0 0 0 0 0 0 0 0 0 0 0 0 0 0 0 0 0 0 0 0 0 0 0 0 0 0 0 0 0 0
0 0 0 0 0 0 0 0 0 0 0 0 0 0 0 0 0 0 0 0 0 0 0 0 0 0 0 0 0 0 0 0 0 0 0 0 0 0 0 0 0 0 0 0 0 0 0 0 0
0 0 0 0 0 0 0 0 0 0 0 0 0 0 0 0 0 0 0 0 0 0 0 0 0 0 0 0 0 0 0 0 0 0 0 0 0 0 0 0 0 0 0 0 0 0 0 0 0
0 0 0 0 0 0 0 0 0 0 0 0 0 0 0 0 0 0 0 0 0 0 0 0 0 0 0 0 0 0 0 0 0 0 0 0 0 0 0 0 0 0 0 0 0 0 0 0 0
Wind_Speed
7 4 3 3 5 5 7 4 3 4 3 1 1 1 1 1 2 3 4 2 2 2 4 6 4 5 5 6 6 6 6 7 7 7 7 6 6 6 6 6 6 7 7 7 8 8 8 8 8
5 3 3 3 6 8 6 5 6 3 2 2 1 1 1 2 3 4 2 2 1 3 4 5 5 5 5 6 6 6 6 6 6 6 6 6 6 6 6 6 6 6 6 7 7 7 7 7 7
3 3 3 4 6 8 5 3 3 2 2 2 2 0 1 2 3 2 3 1 1 3 4 5 5 5 5 5 5 5 6 6 6 6 6 5 5 5 5 5 5 6 6 6 6 6 6 7 7
3 3 3 5 8 6 3 2 2 4 3 1 2 3 3 4 3 3 2 1 3 3 4 6 4 5 5 5 5 5 5 6 6 5 5 5 5 5 5 5 5 5 5 5 5 5 6 6 6
2 4 6 7 8 5 2 2 3 4 3 2 3 2 3 3 3 3 2 2 3 3 3 5 4 5 5 5 5 4 5 5 5 5 5 5 5 4 4 4 4 5 5 5 5 5 5 5 5
3 4 7 10 10 6 4 3 5 5 3 2 2 3 3 4 3 3 2 2 2 3 3 4 4 4 4 4 4 4 4 4 5 5 5 4 4 4 4 4 4 4 4 4 4 4 4 4 4
4 4 7 9 8 7 4 4 5 5 5 3 2 3 4 3 3 2 2 2 2 3 2 3 3 4 4 4 4 3 3 4 4 4 4 4 4 3 4 4 4 4 4 4 4 3 3 4 4
2 3 6 8 9 7 4 4 2 4 3 1 2 3 2 2 2 2 2 2 2 2 2 2 2 2 2 3 4 3 3 3 3 3 4 4 3 3 3 3 3 3 3 3 3 3 3 3 3
3 6 8 8 7 5 5 5 2 0 2 2 1 1 3 3 2 2 2 2 2 2 1 1 1 1 1 2 3 3 3 3 3 3 3 3 3 3 3 3 2 2 2 3 3 3 3 2 3
4 7 7 2 2 3 5 4 3 4 4 4 3 1 2 3 2 2 1 1 1 0 0 1 0 0 0 1 1 1 2 3 3 3 3 2 2 2 2 4 2 2 2 3 3 3 2 2 2
3 5 3 2 1 2 3 3 3 5 6 5 4 3 2 2 2 2 1 1 0 1 1 1 1 1 0 0 1 1 1 1 2 2 2 2 2 2 2 2 3 3 3 2 3 3 2 2 1
2 1 2 2 1 3 3 3 3 6 4 1 2 2 4 4 4 3 2 2 1 1 1 1 1 1 1 1 1 1 1 1 1 1 2 2 1 2 1 1 1 2 2 2 2 2 3 3 3
4 3 1 2 2 3 3 5 5 6 5 3 2 3 4 4 4 3 3 2 2 2 2 1 2 1 1 1 1 1 1 1 1 1 2 2 2 2 2 2 2 2 1 2 3 3 3 3 3
2 3 2 2 3 3 4 6 6 7 4 5 4 4 5 5 4 4 4 4 3 3 3 2 2 1 1 1 1 1 1 1 1 1 2 3 2 2 2 2 2 2 2 2 3 3 3 3 3
3 3 3 3 4 2 4 8 9 6 5 6 5 5 4 4 4 5 5 5 4 4 3 2 2 1 1 1 1 1 1 1 2 2 2 3 3 3 2 3 3 2 2 3 3 3 3 3 3
4 4 4 3 2 3 6 9 3 3 5 6 6 5 5 4 4 4 4 5 4 4 3 2 2 2 2 2 2 1 1 2 2 2 2 3 3 4 3 3 3 3 3 3 3 3 3 3 3
5 5 5 3 2 3 7 8 2 2 5 6 6 6 5 5 5 4 4 4 4 4 3 2 2 2 2 2 2 2 2 2 2 2 2 3 3 4 4 3 3 3 3 3 3 3 3 4 4
4 5 5 5 1 4 8 10 7 5 6 7 7 6 6 6 5 4 3 3 3 3 3 2 2 2 2 2 2 1 2 2 2 2 3 3 3 4 4 3 4 4 3 4 4 4 4 4 3
2 4 5 3 1 5 9 11 10 8 8 9 8 7 7 7 6 4 3 3 3 3 3 3 3 2 1 1 2 2 2 2 2 2 3 4 4 4 4 3 4 4 4 4 5 4 5 4 2
3 4 4 2 1 5 7 12 10 9 9 9 9 8 8 7 5 4 3 3 3 3 3 3 3 3 3 2 2 2 3 3 3 3 3 4 4 4 4 4 4 4 4 5 5 5 4 3 2
4 5 5 4 4 4 7 10 7 6 7 7 7 6 6 6 5 4 3 3 3 3 3 3 4 4 3 3 2 2 2 3 3 3 3 3 4 4 4 5 5 5 5 5 5 5 6 4 4
4 2 4 4 5 3 3 7 5 5 6 6 5 5 5 4 3 3 2 3 3 3 3 3 3 4 3 3 3 4 4 4 4 3 3 4 4 5 5 5 6 6 5 6 6 5 5 5 5
1 0 3 4 4 5 4 6 6 4 6 5 4 3 3 2 2 2 2 3 3 3 3 3 3 3 3 4 4 5 5 4 3 4 5 5 4 5 5 5 5 6 5 6 6 6 6 5 6
2 2 2 3 3 6 5 7 7 3 4 3 2 1 0 1 1 1 2 2 2 2 2 2 2 3 3 4 4 5 6 5 5 5 5 4 3 4 6 6 6 6 6 6 6 6 7 7 7
3 3 2 3 4 5 2 7 8 1 2 3 2 1 0 0 1 2 2 2 2 3 3 3 3 3 3 4 4 5 6 6 6 6 5 5 4 4 5 5 6 6 6 6 7 7 7 8 8
5 4 3 4 4 3 4 9 4 1 2 3 2 2 0 1 2 2 3 2 3 3 3 3 3 4 4 4 5 5 5 5 5 6 6 6 5 5 5 6 6 7 7 7 6 6 7 7 8
4 4 2 2 2 5 6 6 5 2 3 3 3 2 0 1 2 3 3 3 3 4 4 4 4 4 4 4 4 4 5 5 6 7 6 6 6 5 6 6 6 6 7 7 7 6 8 7 8
3 3 4 4 4 6 6 7 4 4 5 4 3 1 1 2 3 3 3 4 4 4 4 4 4 4 5 5 4 4 5 5 6 6 7 7 7 6 7 7 7 7 7 7 7 7 7 8 8
5 5 4 3 3 5 6 4 0 4 4 3 2 1 2 3 3 4 4 4 4 4 4 4 4 5 5 5 5 5 5 5 6 6 6 7 7 7 7 7 7 7 7 7 7 8 8 8 8
5 6 7 5 5 5 6 6 1 2 2 2 2 3 3 4 4 4 5 5 4 4 4 5 4 4 5 5 5 6 6 6 6 6 6 7 7 7 7 7 7 7 8 8 8 9 8 8 9
Wind_Direction
322 301 259 232 219 223 228 202 197 164 157 99 50 249 236 323 332 51 59 58 64 134 138 132 113 128 133 131 129 129 124 119 117 116 113 110 108 105 102 102 99 98 96 95 93 90 89 87 87
317 289 234 229 233 223 212 202 197 174 112 118 151 191 164 99 33 50 65 36 84 136 136 127 110 126 129 128 126 131 127 124 122 120 117 114 109 104 104 105 100 100 100 95 91 89 89 89 88
298 279 238 214 228 235 211 174 189 153 137 185 158 126 353 61 42 36 32 35 146 136 133 113 105 118 123 128 129 133 136 131 128 127 124 120 115 110 107 107 102 100 101 100 95 90 90 90 88
257 208 217 229 223 230 241 161 164 171 166 188 194 145 111 48 11 13 20 132 141 134 138 118 112 116 116 120 125 129 137 136 133 134 130 125 119 115 112 107 101 101 105 104 100 96 94 95 93
242 223 209 220 228 219 224 217 190 198 173 166 204 176 122 70 27 33 58 122 134 133 130 124 107 113 115 114 114 119 132 135 135 133 131 126 118 112 109 109 107 101 104 108 106 102 101 101 98
203 222 224 222 216 211 202 204 210 215 197 168 201 188 125 83 43 37 60 113 127 129 129 122 106 106 109 110 114 116 123 129 136 134 129 125 120 116 113 114 112 107 111 110 109 107 109 109 108
222 218 232 230 221 214 194 190 210 219 207 194 224 196 143 103 36 37 75 99 105 110 112 119 133 129 113 109 107 107 118 118 111 120 119 111 117 124 126 121 115 109 110 113 111 112 113 114 112
263 222 224 226 224 214 170 180 211 238 223 101 236 221 154 96 44 67 84 87 95 98 99 114 121 129 144 140 111 103 110 116 111 100 105 110 122 129 126 134 119 117 112 110 108 102 108 109 114
237 227 225 220 222 197 170 184 165 245 197 178 212 349 28 89 105 94 79 82 91 88 80 87 103 120 139 146 131 141 135 130 142 136 125 161 172 167 163 133 117 123 119 119 112 100 91 114 130
218 227 230 239 245 186 175 195 179 186 202 203 182 139 95 127 132 124 116 81 92 97 52 28 28 113 132 144 154 175 171 164 182 177 169 187 189 179 183 131 131 137 135 136 123 114 147 215 184
215 233 211 204 207 213 202 204 207 213 222 223 218 191 169 175 174 181 198 201 307 306 318 345 333 297 234 240 201 196 188 183 196 188 179 194 199 183 191 168 167 178 178 181 170 189 211 225 224
192 217 231 213 213 235 232 222 223 233 245 305 257 216 202 205 207 216 228 238 254 284 287 306 303 322 311 284 244 217 214 217 217 208 206 204 203 208 198 195 193 197 207 217 222 231 230 234 230
204 192 214 232 224 253 251 243 253 244 249 255 237 211 213 219 226 236 249 249 246 261 265 289 297 298 322 307 283 255 239 231 234 234 229 223 215 211 208 209 203 218 231 227 236 239 236 239 240
167 171 205 249 237 243 247 253 245 242 232 225 224 226 228 231 239 247 251 256 254 259 255 251 271 283 278 280 270 264 251 244 257 249 251 241 236 227 214 218 214 215 225 242 247 249 244 242 240
166 179 217 232 232 226 246 245 228 233 229 230 229 233 239 244 244 247 253 260 262 264 252 245 247 262 259 257 271 266 251 236 246 251 249 245 241 235 233 227 226 223 229 235 242 245 247 247 246
186 206 223 188 214 214 236 249 202 202 223 234 234 236 239 246 247 255 263 264 264 261 247 243 244 252 256 259 262 265 263 248 247 257 255 247 243 236 234 236 233 232 225 230 235 238 240 241 246
198 223 232 209 194 225 232 255 206 204 234 239 239 240 242 247 252 262 267 265 262 256 250 243 246 254 262 263 259 263 264 265 262 255 257 255 246 237 237 240 242 235 227 226 231 238 242 243 248
210 227 234 235 192 240 240 254 255 241 245 250 248 245 246 248 253 258 261 264 265 257 258 248 247 257 270 257 248 253 262 268 270 265 260 259 252 242 240 240 243 241 232 226 225 232 238 245 250
234 236 250 261 312 266 254 264 265 255 246 247 247 247 247 250 254 253 256 258 262 261 259 252 260 259 255 255 253 248 258 275 270 269 269 261 255 251 242 243 241 236 237 237 230 227 232 240 242
219 245 258 258 283 271 277 275 266 250 243 246 249 248 248 252 250 250 256 255 254 262 268 257 256 259 253 253 257 251 260 260 268 266 263 264 258 252 246 242 242 238 239 242 236 226 229 235 222
235 249 267 282 295 252 282 271 242 224 233 244 248 251 254 249 249 248 261 271 271 271 271 268 262 261 258 257 251 248 254 252 251 261 259 262 264 259 252 247 244 239 236 237 237 226 223 231 227
244 261 268 265 267 269 279 283 249 227 233 233 238 236 242 243 249 254 261 275 280 283 278 269 264 262 262 255 246 244 248 257 265 272 261 258 255 256 252 250 247 245 239 237 237 233 231 228 229
257 284 250 251 251 270 236 258 266 221 232 221 216 218 233 250 257 265 271 277 287 296 292 283 273 265 264 259 255 252 255 260 266 269 268 263 253 250 252 249 247 247 244 241 238 235 233 232 234
156 169 197 216 233 251 229 238 265 218 224 208 192 181 233 267 280 295 298 301 307 317 309 296 283 280 273 263 256 254 260 263 263 261 271 272 260 250 250 249 247 248 246 244 240 234 234 234 235
195 209 228 224 225 241 162 239 257 301 225 224 213 200 15 351 340 340 339 334 333 327 324 312 297 290 285 273 264 261 262 262 260 263 265 271 267 262 261 259 255 254 250 248 243 238 236 235 237
202 228 241 252 257 264 208 243 257 50 253 234 232 227 249 4 1 350 345 338 337 331 327 325 320 307 296 285 279 271 269 266 265 265 264 263 264 262 266 265 262 260 256 252 248 245 240 238 238
194 212 286 276 291 269 245 255 274 194 209 205 210 204 218 355 352 343 337 337 335 330 323 324 319 317 314 303 295 283 278 273 270 269 269 267 265 263 263 261 262 264 259 253 250 247 246 242 241
265 180 188 212 245 261 258 251 243 195 194 193 203 214 321 340 338 333 330 329 327 324 319 316 315 313 313 311 303 295 289 282 278 273 269 270 271 269 267 264 263 262 261 257 252 251 249 245 243
181 189 205 209 252 264 275 266 186 216 199 202 223 257 299 314 318 320 323 322 317 315 315 310 312 312 311 311 308 301 297 292 284 278 275 272 272 269 267 267 265 264 262 259 255 254 252 248 246
237 219 203 223 224 236 269 273 90 225 214 224 256 285 297 302 311 316 321 316 310 310 312 310 308 308 309 309 305 302 301 299 293 288 283 279 273 270 266 265 265 264 262 260 257 256 254 251 249